owner,sensor,date,latitude,longitude,vertical_datum,direction_of_sea_water_velocity,sea_water_speed,upward_sea_water_velocity,qcFlag 
TABS,ioos:station:wmo:42047:1,2009-10-01T00:00:00Z,27.8966,-93.5973,2.0,268.7293738,9.022217022,-99999.0,'11133222,11111222,99999999' 
TABS,ioos:station:wmo:42047:1,2009-10-01T00:30:00Z,27.8966,-93.5973,2.0,269.3887744,4.690266517,-99999.0,'11133222,11111222,99999999' 
TABS,ioos:station:wmo:42047:1,2009-10-01T01:00:00Z,27.8966,-93.5973,2.0,271.2555238,6.391533462,-99999.0,'11133222,11111222,99999999' 
TABS,ioos:station:wmo:42047:1,2009-10-01T01:30:00Z,27.8966,-93.5973,2.0,269.3835206,6.510376333,-99999.0,'11133222,11111222,99999999' 
TABS,ioos:station:wmo:42047:1,2009-10-01T02:00:00Z,27.8966,-93.5973,2.0,291.4998952,8.458540063,-99999.0,'11133222,11111222,99999999' 
TABS,ioos:station:wmo:42047:1,2009-10-01T02:30:00Z,27.8966,-93.5973,2.0,274.3090758,7.320689858,-99999.0,'11133222,11111222,99999999' 
TABS,ioos:station:wmo:42047:1,2009-10-01T03:00:00Z,27.8966,-93.5973,2.0,289.869048,5.561025085,-99999.0,'11133222,11111222,99999999' 
TABS,ioos:station:wmo:42047:1,2009-10-01T03:30:00Z,27.8966,-93.5973,2.0,259.6332807,5.835246353,-99999.0,'11133222,11111222,99999999' 
TABS,ioos:station:wmo:42047:1,2009-10-01T04:00:00Z,27.8966,-93.5973,2.0,318.9291679,9.391235276,-99999.0,'11133222,11111222,99999999' 
TABS,ioos:station:wmo:42047:1,2009-10-01T04:30:00Z,27.8966,-93.5973,2.0,324.4553512,9.168451341,-99999.0,'11133222,11111222,99999999' 
TABS,ioos:station:wmo:42047:1,2009-10-01T05:00:00Z,27.8966,-93.5973,2.0,333.8086514,9.606352065,-99999.0,'11133222,11111222,99999999' 
TABS,ioos:station:wmo:42047:1,2009-10-01T05:30:00Z,27.8966,-93.5973,2.0,338.5741984,8.787291961,-99999.0,'11133222,11111222,99999999' 
TABS,ioos:station:wmo:42047:1,2009-10-01T06:00:00Z,27.8966,-93.5973,2.0,356.1390049,7.276517024,-99999.0,'11133222,11111222,99999999' 
TABS,ioos:station:wmo:42047:1,2009-10-01T06:30:00Z,27.8966,-93.5973,2.0,333.2539067,7.06601019,-99999.0,'11133222,11111222,99999999' 
TABS,ioos:station:wmo:42047:1,2009-10-01T07:00:00Z,27.8966,-93.5973,2.0,349.7126562,5.935419109,-99999.0,'11133222,11111222,99999999' 
TABS,ioos:station:wmo:42047:1,2009-10-01T07:30:00Z,27.8966,-93.5973,2.0,346.7409098,6.975965883,-99999.0,'11133222,11111222,99999999' 
TABS,ioos:station:wmo:42047:1,2009-10-01T08:00:00Z,27.8966,-93.5973,2.0,346.607744,9.714164915,-99999.0,'11133222,11111222,99999999' 
TABS,ioos:station:wmo:42047:1,2009-10-01T08:30:00Z,27.8966,-93.5973,2.0,334.3964675,6.664420455,-99999.0,'11133222,11111222,99999999' 
TABS,ioos:station:wmo:42047:1,2009-10-01T09:00:00Z,27.8966,-93.5973,2.0,328.4717162,7.132972732,-99999.0,'11133222,11111222,99999999' 
TABS,ioos:station:wmo:42047:1,2009-10-01T09:30:00Z,27.8966,-93.5973,2.0,9.940057948,8.284352721,-99999.0,'11133222,11111222,99999999' 
TABS,ioos:station:wmo:42047:1,2009-10-01T10:00:00Z,27.8966,-93.5973,2.0,357.0595259,2.923850201,-99999.0,'11133222,11111222,99999999' 
TABS,ioos:station:wmo:42047:1,2009-10-01T10:30:00Z,27.8966,-93.5973,2.0,335.5091892,7.0437561,-99999.0,'11133222,11111222,99999999' 
TABS,ioos:station:wmo:42047:1,2009-10-01T11:00:00Z,27.8966,-93.5973,2.0,26.50801825,8.962164917,-99999.0,'11133222,11111222,99999999' 
TABS,ioos:station:wmo:42047:1,2009-10-01T11:30:00Z,27.8966,-93.5973,2.0,19.42714942,7.305956474,-99999.0,'11133222,11111222,99999999' 
TABS,ioos:station:wmo:42047:1,2009-10-01T12:00:00Z,27.8966,-93.5973,2.0,32.78591329,5.447834432,-99999.0,'11133222,11111222,99999999' 
TABS,ioos:station:wmo:42047:1,2009-10-01T12:30:00Z,27.8966,-93.5973,2.0,35.02241594,6.203224968,-99999.0,'11133222,11111222,99999999' 
TABS,ioos:station:wmo:42047:1,2009-10-01T13:00:00Z,27.8966,-93.5973,2.0,85.52444569,7.432664394,-99999.0,'11133222,11111222,99999999' 
TABS,ioos:station:wmo:42047:1,2009-10-01T13:30:00Z,27.8966,-93.5973,2.0,36.9785705,6.334011367,-99999.0,'11133222,11111222,99999999' 
TABS,ioos:station:wmo:42047:1,2009-10-01T14:00:00Z,27.8966,-93.5973,2.0,48.25977949,5.347307734,-99999.0,'11133222,11111222,99999999' 
TABS,ioos:station:wmo:42047:1,2009-10-01T14:30:00Z,27.8966,-93.5973,2.0,67.68161595,5.556230737,-99999.0,'11133222,11111222,99999999' 
TABS,ioos:station:wmo:42047:1,2009-10-01T15:00:00Z,27.8966,-93.5973,2.0,70.40900589,7.36644419,-99999.0,'11133222,11111222,99999999' 
TABS,ioos:station:wmo:42047:1,2009-10-01T15:30:00Z,27.8966,-93.5973,2.0,80.8042623,6.007204009,-99999.0,'11133222,11111222,99999999' 
TABS,ioos:station:wmo:42047:1,2009-10-01T16:00:00Z,27.8966,-93.5973,2.0,82.37436019,6.103982307,-99999.0,'11133222,11111222,99999999' 
TABS,ioos:station:wmo:42047:1,2009-10-01T16:30:00Z,27.8966,-93.5973,2.0,51.11559449,7.964923101,-99999.0,'11133222,11111222,99999999' 
TABS,ioos:station:wmo:42047:1,2009-10-01T17:00:00Z,27.8966,-93.5973,2.0,64.59625014,6.620120845,-99999.0,'11133222,11111222,99999999' 
TABS,ioos:station:wmo:42047:1,2009-10-01T17:30:00Z,27.8966,-93.5973,2.0,67.64568468,8.46624474,-99999.0,'11133222,11111222,99999999' 
TABS,ioos:station:wmo:42047:1,2009-10-01T18:00:00Z,27.8966,-93.5973,2.0,76.88359455,5.287958018,-99999.0,'11133222,11111222,99999999' 
TABS,ioos:station:wmo:42047:1,2009-10-01T18:30:00Z,27.8966,-93.5973,2.0,52.06269138,1.610279479,-99999.0,'11133222,11111222,99999999' 
TABS,ioos:station:wmo:42047:1,2009-10-01T19:00:00Z,27.8966,-93.5973,2.0,69.106542,4.570536074,-99999.0,'11133222,11111222,99999999' 
TABS,ioos:station:wmo:42047:1,2009-10-01T19:30:00Z,27.8966,-93.5973,2.0,42.40191716,4.211614892,-99999.0,'11133222,11111222,99999999' 
TABS,ioos:station:wmo:42047:1,2009-10-01T20:00:00Z,27.8966,-93.5973,2.0,58.19280136,5.824723169,-99999.0,'11133222,11111222,99999999' 
TABS,ioos:station:wmo:42047:1,2009-10-01T20:30:00Z,27.8966,-93.5973,2.0,60.96173639,6.839795319,-99999.0,'11133222,11111222,99999999' 
TABS,ioos:station:wmo:42047:1,2009-10-01T21:00:00Z,27.8966,-93.5973,2.0,32.02946685,5.072090299,-99999.0,'11133222,11111222,99999999' 
TABS,ioos:station:wmo:42047:1,2009-10-01T21:30:00Z,27.8966,-93.5973,2.0,51.48768508,6.070494214,-99999.0,'11133222,11111222,99999999' 
TABS,ioos:station:wmo:42047:1,2009-10-01T22:00:00Z,27.8966,-93.5973,2.0,58.52323426,6.319976266,-99999.0,'11133222,11111222,99999999' 
TABS,ioos:station:wmo:42047:1,2009-10-01T22:30:00Z,27.8966,-93.5973,2.0,62.54763725,4.620270555,-99999.0,'11133222,11111222,99999999' 
TABS,ioos:station:wmo:42047:1,2009-10-01T23:00:00Z,27.8966,-93.5973,2.0,71.02649069,5.382434393,-99999.0,'11133222,11111222,99999999' 
TABS,ioos:station:wmo:42047:1,2009-10-01T23:30:00Z,27.8966,-93.5973,2.0,83.16009525,7.97677253,-99999.0,'11133222,11111222,99999999' 
TABS,ioos:station:wmo:42047:1,2009-10-02T00:00:00Z,27.8966,-93.5973,2.0,118.5804264,4.577826995,-99999.0,'11133222,11111222,99999999' 
TABS,ioos:station:wmo:42047:1,2009-10-02T00:30:00Z,27.8966,-93.5973,2.0,330.7089168,0.470106371,-99999.0,'11133222,11111222,99999999' 
TABS,ioos:station:wmo:42047:1,2009-10-02T01:00:00Z,27.8966,-93.5973,2.0,69.79147892,1.736922566,-99999.0,'11133222,11111222,99999999' 
TABS,ioos:station:wmo:42047:1,2009-10-02T01:30:00Z,27.8966,-93.5973,2.0,82.21780747,3.027887052,-99999.0,'11133222,11111222,99999999' 
TABS,ioos:station:wmo:42047:1,2009-10-02T02:00:00Z,27.8966,-93.5973,2.0,184.3591872,2.236470434,-99999.0,'11133222,11111222,99999999' 
TABS,ioos:station:wmo:42047:1,2009-10-02T02:30:00Z,27.8966,-93.5973,2.0,22.20051452,3.467016008,-99999.0,'11133222,11111222,99999999' 
TABS,ioos:station:wmo:42047:1,2009-10-02T03:00:00Z,27.8966,-93.5973,2.0,23.64022841,3.06740933,-99999.0,'11133222,11111222,99999999' 
TABS,ioos:station:wmo:42047:1,2009-10-02T03:30:00Z,27.8966,-93.5973,2.0,12.20809382,8.133935087,-99999.0,'11133222,11111222,99999999' 
TABS,ioos:station:wmo:42047:1,2009-10-02T04:00:00Z,27.8966,-93.5973,2.0,1.98654651,1.73104015,-99999.0,'11133222,11111222,99999999' 
TABS,ioos:station:wmo:42047:1,2009-10-02T04:30:00Z,27.8966,-93.5973,2.0,55.15913747,2.485558287,-99999.0,'11133222,11111222,99999999' 
TABS,ioos:station:wmo:42047:1,2009-10-02T05:00:00Z,27.8966,-93.5973,2.0,346.7224197,4.397556139,-99999.0,'11133222,11111222,99999999' 
TABS,ioos:station:wmo:42047:1,2009-10-02T05:30:00Z,27.8966,-93.5973,2.0,2.739991121,6.066934976,-99999.0,'11133222,11111222,99999999' 
TABS,ioos:station:wmo:42047:1,2009-10-02T06:00:00Z,27.8966,-93.5973,2.0,359.6182451,9.000199998,-99999.0,'11133222,11144222,99999999' 
TABS,ioos:station:wmo:42047:1,2009-10-02T06:30:00Z,27.8966,-93.5973,2.0,352.889751,9.775177748,-99999.0,'11133222,11111222,99999999' 
TABS,ioos:station:wmo:42047:1,2009-10-02T07:00:00Z,27.8966,-93.5973,2.0,7.927972706,8.410380491,-99999.0,'11133222,11111222,99999999' 
TABS,ioos:station:wmo:42047:1,2009-10-02T07:30:00Z,27.8966,-93.5973,2.0,358.1851108,14.20712849,-99999.0,'11111222,11111222,99999999' 
TABS,ioos:station:wmo:42047:1,2009-10-02T08:00:00Z,27.8966,-93.5973,2.0,10.98568255,5.195199707,-99999.0,'11133222,11111222,99999999' 
TABS,ioos:station:wmo:42047:1,2009-10-02T08:30:00Z,27.8966,-93.5973,2.0,19.85658901,12.3651486,-99999.0,'11111222,11111222,99999999' 
TABS,ioos:station:wmo:42047:1,2009-10-02T09:00:00Z,27.8966,-93.5973,2.0,19.10376964,10.29707726,-99999.0,'11111222,11111222,99999999' 
TABS,ioos:station:wmo:42047:1,2009-10-02T09:30:00Z,27.8966,-93.5973,2.0,24.20498774,13.68292732,-99999.0,'11111222,11111222,99999999' 
TABS,ioos:station:wmo:42047:1,2009-10-02T10:00:00Z,27.8966,-93.5973,2.0,29.25234947,11.82838958,-99999.0,'11111222,11111222,99999999' 
TABS,ioos:station:wmo:42047:1,2009-10-02T10:30:00Z,27.8966,-93.5973,2.0,50.76684618,14.3562112,-99999.0,'11111222,11111222,99999999' 
TABS,ioos:station:wmo:42047:1,2009-10-02T11:00:00Z,27.8966,-93.5973,2.0,43.78123284,15.62352393,-99999.0,'11111222,11111222,99999999' 
TABS,ioos:station:wmo:42047:1,2009-10-02T11:30:00Z,27.8966,-93.5973,2.0,71.71123858,26.03511667,-99999.0,'11111222,11111222,99999999' 
TABS,ioos:station:wmo:42047:1,2009-10-02T12:00:00Z,27.8966,-93.5973,2.0,62.7933421,26.35594999,-99999.0,'11111222,11111222,99999999' 
TABS,ioos:station:wmo:42047:1,2009-10-02T12:30:00Z,27.8966,-93.5973,2.0,61.40573878,25.51164636,-99999.0,'11111222,11111222,99999999' 
TABS,ioos:station:wmo:42047:1,2009-10-02T13:00:00Z,27.8966,-93.5973,2.0,76.08052416,26.18905115,-99999.0,'11111222,11111222,99999999' 
TABS,ioos:station:wmo:42047:1,2009-10-02T13:30:00Z,27.8966,-93.5973,2.0,67.46592644,25.70233647,-99999.0,'11111222,11111222,99999999' 
TABS,ioos:station:wmo:42047:1,2009-10-02T14:00:00Z,27.8966,-93.5973,2.0,66.35943332,20.42401038,-99999.0,'11111222,11111222,99999999' 
TABS,ioos:station:wmo:42047:1,2009-10-02T14:30:00Z,27.8966,-93.5973,2.0,73.54523846,28.73696574,-99999.0,'11111222,11111222,99999999' 
TABS,ioos:station:wmo:42047:1,2009-10-02T15:00:00Z,27.8966,-93.5973,2.0,85.37187328,27.38930631,-99999.0,'11111222,11111222,99999999' 
TABS,ioos:station:wmo:42047:1,2009-10-02T15:30:00Z,27.8966,-93.5973,2.0,96.55581627,23.47349143,-99999.0,'11111222,11111222,99999999' 
TABS,ioos:station:wmo:42047:1,2009-10-02T16:00:00Z,27.8966,-93.5973,2.0,109.0003552,23.71191262,-99999.0,'11111222,11111222,99999999' 
TABS,ioos:station:wmo:42047:1,2009-10-02T16:30:00Z,27.8966,-93.5973,2.0,123.794281,24.37911401,-99999.0,'11111222,11111222,99999999' 
TABS,ioos:station:wmo:42047:1,2009-10-02T17:00:00Z,27.8966,-93.5973,2.0,136.8352598,19.2078031,-99999.0,'11111222,11111222,99999999' 
TABS,ioos:station:wmo:42047:1,2009-10-02T17:30:00Z,27.8966,-93.5973,2.0,143.3363622,14.43609365,-99999.0,'11111222,11111222,99999999' 
TABS,ioos:station:wmo:42047:1,2009-10-02T18:00:00Z,27.8966,-93.5973,2.0,159.4971734,11.30617973,-99999.0,'11111222,11111222,99999999' 
TABS,ioos:station:wmo:42047:1,2009-10-02T18:30:00Z,27.8966,-93.5973,2.0,154.3622428,6.078429073,-99999.0,'11133222,11111222,99999999' 
TABS,ioos:station:wmo:42047:1,2009-10-02T19:00:00Z,27.8966,-93.5973,2.0,201.0708637,6.119158439,-99999.0,'11133222,11111222,99999999' 
TABS,ioos:station:wmo:42047:1,2009-10-02T19:30:00Z,27.8966,-93.5973,2.0,200.8140321,5.712836423,-99999.0,'11133222,11111222,99999999' 
TABS,ioos:station:wmo:42047:1,2009-10-02T20:00:00Z,27.8966,-93.5973,2.0,215.6873071,5.331134964,-99999.0,'11133222,11111222,99999999' 
TABS,ioos:station:wmo:42047:1,2009-10-02T20:30:00Z,27.8966,-93.5973,2.0,228.0603594,6.224347355,-99999.0,'11133222,11111222,99999999' 
TABS,ioos:station:wmo:42047:1,2009-10-02T21:00:00Z,27.8966,-93.5973,2.0,245.2372914,6.255141885,-99999.0,'11133222,11111222,99999999' 
TABS,ioos:station:wmo:42047:1,2009-10-02T21:30:00Z,27.8966,-93.5973,2.0,302.4001853,3.079366818,-99999.0,'11133222,11111222,99999999' 
TABS,ioos:station:wmo:42047:1,2009-10-02T22:00:00Z,27.8966,-93.5973,2.0,289.7953036,5.462792326,-99999.0,'11133222,11111222,99999999' 
TABS,ioos:station:wmo:42047:1,2009-10-02T22:30:00Z,27.8966,-93.5973,2.0,255.9911684,4.99865982,-99999.0,'11133222,11111222,99999999' 
TABS,ioos:station:wmo:42047:1,2009-10-02T23:00:00Z,27.8966,-93.5973,2.0,310.3984454,5.199855767,-99999.0,'11133222,11111222,99999999' 
TABS,ioos:station:wmo:42047:1,2009-10-02T23:30:00Z,27.8966,-93.5973,2.0,355.1174623,3.994496214,-99999.0,'11133222,11111222,99999999' 
TABS,ioos:station:wmo:42047:1,2009-10-03T00:00:00Z,27.8966,-93.5973,2.0,329.6190932,8.264944041,-99999.0,'11133222,11111222,99999999' 
TABS,ioos:station:wmo:42047:1,2009-10-03T00:30:00Z,27.8966,-93.5973,2.0,302.8223602,4.759873948,-99999.0,'11133222,11111222,99999999' 
TABS,ioos:station:wmo:42047:1,2009-10-03T01:00:00Z,27.8966,-93.5973,2.0,352.1400525,5.703586591,-99999.0,'11133222,11111222,99999999' 
TABS,ioos:station:wmo:42047:1,2009-10-03T01:30:00Z,27.8966,-93.5973,2.0,355.5503738,7.733311063,-99999.0,'11133222,11111222,99999999' 
TABS,ioos:station:wmo:42047:1,2009-10-03T02:00:00Z,27.8966,-93.5973,2.0,354.2567148,5.196085065,-99999.0,'11133222,11111222,99999999' 
TABS,ioos:station:wmo:42047:1,2009-10-03T02:30:00Z,27.8966,-93.5973,2.0,359.1050388,9.601171803,-99999.0,'11133222,11144222,99999999' 
TABS,ioos:station:wmo:42047:1,2009-10-03T03:00:00Z,27.8966,-93.5973,2.0,4.478079561,9.990495483,-99999.0,'11133222,11111222,99999999' 
TABS,ioos:station:wmo:42047:1,2009-10-03T03:30:00Z,27.8966,-93.5973,2.0,3.451956295,6.311449913,-99999.0,'11133222,11111222,99999999' 
TABS,ioos:station:wmo:42047:1,2009-10-03T04:00:00Z,27.8966,-93.5973,2.0,358.9495394,10.36174213,-99999.0,'11111222,11111222,99999999' 
TABS,ioos:station:wmo:42047:1,2009-10-03T04:30:00Z,27.8966,-93.5973,2.0,0.084037239,13.67001463,-99999.0,'11111222,11111222,99999999' 
TABS,ioos:station:wmo:42047:1,2009-10-03T05:00:00Z,27.8966,-93.5973,2.0,23.35167068,17.71067475,-99999.0,'11111222,11111222,99999999' 
TABS,ioos:station:wmo:42047:1,2009-10-03T05:30:00Z,27.8966,-93.5973,2.0,26.42442426,18.20164828,-99999.0,'11111222,11111222,99999999' 
TABS,ioos:station:wmo:42047:1,2009-10-03T06:00:00Z,27.8966,-93.5973,2.0,35.22237812,17.73733351,-99999.0,'11111222,11111222,99999999' 
TABS,ioos:station:wmo:42047:1,2009-10-03T06:30:00Z,27.8966,-93.5973,2.0,35.93929495,15.76007931,-99999.0,'11111222,11111222,99999999' 
TABS,ioos:station:wmo:42047:1,2009-10-03T07:00:00Z,27.8966,-93.5973,2.0,23.24363418,11.73223338,-99999.0,'11111222,11111222,99999999' 
TABS,ioos:station:wmo:42047:1,2009-10-03T07:30:00Z,27.8966,-93.5973,2.0,22.47731883,8.030024907,-99999.0,'11133222,11111222,99999999' 
TABS,ioos:station:wmo:42047:1,2009-10-03T08:00:00Z,27.8966,-93.5973,2.0,27.70804255,10.53844865,-99999.0,'11111222,11111222,99999999' 
TABS,ioos:station:wmo:42047:1,2009-10-03T08:30:00Z,27.8966,-93.5973,2.0,45.98302232,11.54168099,-99999.0,'11111222,11111222,99999999' 
TABS,ioos:station:wmo:42047:1,2009-10-03T09:00:00Z,27.8966,-93.5973,2.0,37.16459845,11.67015424,-99999.0,'11111222,11111222,99999999' 
TABS,ioos:station:wmo:42047:1,2009-10-03T09:30:00Z,27.8966,-93.5973,2.0,37.59968677,12.40700609,-99999.0,'11111222,11111222,99999999' 
TABS,ioos:station:wmo:42047:1,2009-10-03T10:00:00Z,27.8966,-93.5973,2.0,48.5861506,10.40069228,-99999.0,'11111222,11111222,99999999' 
TABS,ioos:station:wmo:42047:1,2009-10-03T10:30:00Z,27.8966,-93.5973,2.0,45.39623474,11.25033777,-99999.0,'11111222,11111222,99999999' 
TABS,ioos:station:wmo:42047:1,2009-10-03T11:00:00Z,27.8966,-93.5973,2.0,52.43665248,13.54899258,-99999.0,'11111222,11111222,99999999' 
TABS,ioos:station:wmo:42047:1,2009-10-03T11:30:00Z,27.8966,-93.5973,2.0,49.53012604,9.937610377,-99999.0,'11133222,11111222,99999999' 
TABS,ioos:station:wmo:42047:1,2009-10-03T12:00:00Z,27.8966,-93.5973,2.0,73.16315055,12.35982605,-99999.0,'11111222,11111222,99999999' 
TABS,ioos:station:wmo:42047:1,2009-10-03T12:30:00Z,27.8966,-93.5973,2.0,61.84490107,13.86001443,-99999.0,'11111222,11111222,99999999' 
TABS,ioos:station:wmo:42047:1,2009-10-03T13:00:00Z,27.8966,-93.5973,2.0,68.27722432,12.18533955,-99999.0,'11111222,11111222,99999999' 
TABS,ioos:station:wmo:42047:1,2009-10-03T13:30:00Z,27.8966,-93.5973,2.0,66.5314828,11.42509956,-99999.0,'11111222,11111222,99999999' 
TABS,ioos:station:wmo:42047:1,2009-10-03T14:00:00Z,27.8966,-93.5973,2.0,67.19593813,14.1131499,-99999.0,'11111222,11111222,99999999' 
TABS,ioos:station:wmo:42047:1,2009-10-03T14:30:00Z,27.8966,-93.5973,2.0,65.62134449,10.90205944,-99999.0,'11111222,11111222,99999999' 
TABS,ioos:station:wmo:42047:1,2009-10-03T15:00:00Z,27.8966,-93.5973,2.0,80.38117859,10.83228969,-99999.0,'11111222,11111222,99999999' 
TABS,ioos:station:wmo:42047:1,2009-10-03T15:30:00Z,27.8966,-93.5973,2.0,73.2139504,12.63853235,-99999.0,'11111222,11111222,99999999' 
TABS,ioos:station:wmo:42047:1,2009-10-03T16:00:00Z,27.8966,-93.5973,2.0,84.03552685,12.79928904,-99999.0,'11111222,11111222,99999999' 
TABS,ioos:station:wmo:42047:1,2009-10-03T16:30:00Z,27.8966,-93.5973,2.0,91.09935507,4.69086346,-99999.0,'11133222,11111222,99999999' 
TABS,ioos:station:wmo:42047:1,2009-10-03T17:00:00Z,27.8966,-93.5973,2.0,55.38726202,7.922146174,-99999.0,'11133222,11111222,99999999' 
TABS,ioos:station:wmo:42047:1,2009-10-03T17:30:00Z,27.8966,-93.5973,2.0,116.5649891,4.606300034,-99999.0,'11133222,11111222,99999999' 
TABS,ioos:station:wmo:42047:1,2009-10-03T18:00:00Z,27.8966,-93.5973,2.0,38.95043151,6.776466631,-99999.0,'11133222,11111222,99999999' 
TABS,ioos:station:wmo:42047:1,2009-10-03T18:30:00Z,27.8966,-93.5973,2.0,87.64083938,2.672264957,-99999.0,'11133222,11111222,99999999' 
TABS,ioos:station:wmo:42047:1,2009-10-03T19:00:00Z,27.8966,-93.5973,2.0,56.58069733,3.522385555,-99999.0,'11133222,11111222,99999999' 
TABS,ioos:station:wmo:42047:1,2009-10-03T19:30:00Z,27.8966,-93.5973,2.0,2.692380053,6.387049397,-99999.0,'11133222,11111222,99999999' 
TABS,ioos:station:wmo:42047:1,2009-10-03T20:00:00Z,27.8966,-93.5973,2.0,137.3661372,0.856329376,-99999.0,'11133222,11111222,99999999' 
TABS,ioos:station:wmo:42047:1,2009-10-03T20:30:00Z,27.8966,-93.5973,2.0,89.81336989,3.070016287,-99999.0,'11133222,11111222,99999999' 
TABS,ioos:station:wmo:42047:1,2009-10-03T21:00:00Z,27.8966,-93.5973,2.0,128.5168362,1.252517465,-99999.0,'11133222,11111222,99999999' 
TABS,ioos:station:wmo:42047:1,2009-10-03T21:30:00Z,27.8966,-93.5973,2.0,98.66609765,2.721065968,-99999.0,'11133222,11111222,99999999' 
TABS,ioos:station:wmo:42047:1,2009-10-03T22:00:00Z,27.8966,-93.5973,2.0,158.7493337,1.931320792,-99999.0,'11133222,11111222,99999999' 
TABS,ioos:station:wmo:42047:1,2009-10-03T22:30:00Z,27.8966,-93.5973,2.0,349.1282021,6.41514614,-99999.0,'11133222,11111222,99999999' 
TABS,ioos:station:wmo:42047:1,2009-10-03T23:00:00Z,27.8966,-93.5973,2.0,255.3176457,2.367298038,-99999.0,'11133222,11111222,99999999' 
TABS,ioos:station:wmo:42047:1,2009-10-03T23:30:00Z,27.8966,-93.5973,2.0,329.1520882,4.251458573,-99999.0,'11133222,11111222,99999999' 
TABS,ioos:station:wmo:42047:1,2009-10-04T00:00:00Z,27.8966,-93.5973,2.0,351.6251803,3.638804749,-99999.0,'11133222,11111222,99999999' 
TABS,ioos:station:wmo:42047:1,2009-10-04T00:30:00Z,27.8966,-93.5973,2.0,261.5284543,4.276657573,-99999.0,'11133222,11111222,99999999' 
TABS,ioos:station:wmo:42047:1,2009-10-04T01:00:00Z,27.8966,-93.5973,2.0,346.4976622,6.509938556,-99999.0,'11133222,11111222,99999999' 
TABS,ioos:station:wmo:42047:1,2009-10-04T01:30:00Z,27.8966,-93.5973,2.0,331.1094537,8.154949417,-99999.0,'11133222,11111222,99999999' 
TABS,ioos:station:wmo:42047:1,2009-10-04T02:00:00Z,27.8966,-93.5973,2.0,333.318609,6.591942051,-99999.0,'11133222,11111222,99999999' 
TABS,ioos:station:wmo:42047:1,2009-10-04T02:30:00Z,27.8966,-93.5973,2.0,347.4041498,6.465616753,-99999.0,'11133222,11111222,99999999' 
TABS,ioos:station:wmo:42047:1,2009-10-04T03:00:00Z,27.8966,-93.5973,2.0,342.9808893,9.600442698,-99999.0,'11133222,11111222,99999999' 
TABS,ioos:station:wmo:42047:1,2009-10-04T03:30:00Z,27.8966,-93.5973,2.0,351.8701271,8.343860018,-99999.0,'11133222,11111222,99999999' 
TABS,ioos:station:wmo:42047:1,2009-10-04T04:00:00Z,27.8966,-93.5973,2.0,353.0615591,10.67820678,-99999.0,'11111222,11111222,99999999' 
TABS,ioos:station:wmo:42047:1,2009-10-04T04:30:00Z,27.8966,-93.5973,2.0,6.026501774,8.667900553,-99999.0,'11133222,11111222,99999999' 
TABS,ioos:station:wmo:42047:1,2009-10-04T05:00:00Z,27.8966,-93.5973,2.0,27.19354132,8.971644219,-99999.0,'11133222,11111222,99999999' 
TABS,ioos:station:wmo:42047:1,2009-10-04T05:30:00Z,27.8966,-93.5973,2.0,358.1544639,9.935154755,-99999.0,'11133222,11111222,99999999' 
TABS,ioos:station:wmo:42047:1,2009-10-04T06:00:00Z,27.8966,-93.5973,2.0,4.70346138,10.24449608,-99999.0,'11111222,11111222,99999999' 
TABS,ioos:station:wmo:42047:1,2009-10-04T06:30:00Z,27.8966,-93.5973,2.0,5.239206589,9.308888226,-99999.0,'11133222,11111222,99999999' 
TABS,ioos:station:wmo:42047:1,2009-10-04T07:00:00Z,27.8966,-93.5973,2.0,1.158049175,11.38232402,-99999.0,'11111222,11111222,99999999' 
TABS,ioos:station:wmo:42047:1,2009-10-04T07:30:00Z,27.8966,-93.5973,2.0,4.270120198,12.62504257,-99999.0,'11111222,11111222,99999999' 
TABS,ioos:station:wmo:42047:1,2009-10-04T08:00:00Z,27.8966,-93.5973,2.0,13.20975967,13.78473431,-99999.0,'11111222,11111222,99999999' 
TABS,ioos:station:wmo:42047:1,2009-10-04T08:30:00Z,27.8966,-93.5973,2.0,5.116875,13.34317054,-99999.0,'11111222,11111222,99999999' 
TABS,ioos:station:wmo:42047:1,2009-10-04T09:00:00Z,27.8966,-93.5973,2.0,24.30204687,12.68392684,-99999.0,'11111222,11111222,99999999' 
TABS,ioos:station:wmo:42047:1,2009-10-04T09:30:00Z,27.8966,-93.5973,2.0,19.31751127,16.83796306,-99999.0,'11111222,11111222,99999999' 
TABS,ioos:station:wmo:42047:1,2009-10-04T10:00:00Z,27.8966,-93.5973,2.0,19.62383296,16.61502031,-99999.0,'11111222,11111222,99999999' 
TABS,ioos:station:wmo:42047:1,2009-10-04T10:30:00Z,27.8966,-93.5973,2.0,17.31580548,17.80702109,-99999.0,'11111222,11111222,99999999' 
TABS,ioos:station:wmo:42047:1,2009-10-04T11:00:00Z,27.8966,-93.5973,2.0,34.96241295,17.36362289,-99999.0,'11111222,11111222,99999999' 
TABS,ioos:station:wmo:42047:1,2009-10-04T11:30:00Z,27.8966,-93.5973,2.0,19.46603195,20.91552772,-99999.0,'11111222,11111222,99999999' 
TABS,ioos:station:wmo:42047:1,2009-10-04T12:00:00Z,27.8966,-93.5973,2.0,30.06460513,25.3506134,-99999.0,'11111222,11111222,99999999' 
TABS,ioos:station:wmo:42047:1,2009-10-04T12:30:00Z,27.8966,-93.5973,2.0,25.56216162,21.9704984,-99999.0,'11111222,11111222,99999999' 
TABS,ioos:station:wmo:42047:1,2009-10-04T13:00:00Z,27.8966,-93.5973,2.0,30.06294335,22.57714995,-99999.0,'11111222,11111222,99999999' 
TABS,ioos:station:wmo:42047:1,2009-10-04T13:30:00Z,27.8966,-93.5973,2.0,44.79326264,25.46308112,-99999.0,'11111222,11111222,99999999' 
TABS,ioos:station:wmo:42047:1,2009-10-04T14:00:00Z,27.8966,-93.5973,2.0,47.00320496,19.82524653,-99999.0,'11111222,11111222,99999999' 
TABS,ioos:station:wmo:42047:1,2009-10-04T14:30:00Z,27.8966,-93.5973,2.0,41.39395924,22.03464999,-99999.0,'11111222,11111222,99999999' 
TABS,ioos:station:wmo:42047:1,2009-10-04T15:00:00Z,27.8966,-93.5973,2.0,43.21755127,24.09571746,-99999.0,'11111222,11111222,99999999' 
TABS,ioos:station:wmo:42047:1,2009-10-04T15:30:00Z,27.8966,-93.5973,2.0,40.95131958,22.73365127,-99999.0,'11111222,11111222,99999999' 
TABS,ioos:station:wmo:42047:1,2009-10-04T16:00:00Z,27.8966,-93.5973,2.0,44.56106673,18.45602883,-99999.0,'11111222,11111222,99999999' 